,,PA_Meas_PMT16A,,PR_Meas_QMR101_102,,RH_Meas_QMH101,,SR_Meas_QMS101,,TA_Meas_QMH101,,GenWind,,GenWind,
time,status,PA,status,PR,status,RH,status,SR,status,TA,status,DirAvg,status,SpdAvg,
2011-08-24, 00:00:05,VALID,917.548,VALID,0,VALID,95.7044,VALID,0,VALID,21.4957,VALID,22,VALID,0,
2011-08-24, 00:01:05,VALID,917.521,VALID,0,VALID,95.7958,VALID,0,VALID,21.5347,VALID,21,VALID,0,
2011-08-24, 00:02:05,VALID,917.479,VALID,0,VALID,95.9026,VALID,0,VALID,21.5737,VALID,22,VALID,0,
2011-08-24, 00:03:05,VALID,917.487,VALID,0,VALID,95.9941,VALID,0,VALID,21.6128,VALID,21,VALID,0,
2011-08-24, 00:04:05,VALID,917.468,VALID,0,VALID,96.0169,VALID,0,VALID,21.6729,VALID,22,VALID,0,
2011-08-24, 00:05:05,VALID,917.489,VALID,0,VALID,96.1008,VALID,0,VALID,21.712,VALID,22,VALID,0,
2011-08-24, 00:06:05,VALID,917.47,VALID,0,VALID,96.1618,VALID,0,VALID,21.7688,VALID,22,VALID,0,
2011-08-24, 00:07:05,VALID,917.482,VALID,0,VALID,96.0932,VALID,0,VALID,21.7688,VALID,22,VALID,0,
2011-08-24, 00:08:05,VALID,917.453,VALID,0,VALID,96.0627,VALID,0,VALID,21.7705,VALID,22,VALID,0,
2011-08-24, 00:09:05,VALID,917.448,VALID,0,VALID,96.1465,VALID,0,VALID,21.8079,VALID,22,VALID,0,
2011-08-24, 00:10:05,VALID,917.445,VALID,0,VALID,96.1694,VALID,0,VALID,21.8664,VALID,22,VALID,0.065625,
2011-08-24, 00:11:05,VALID,917.437,VALID,0,VALID,95.9483,VALID,0.107441,VALID,21.7867,VALID,22,VALID,0,
2011-08-24, 00:12:05,VALID,917.419,VALID,0,VALID,95.8263,VALID,0,VALID,21.7493,VALID,22,VALID,0.144141,
2011-08-24, 00:13:05,VALID,917.43,VALID,0,VALID,95.7806,VALID,0,VALID,21.6908,VALID,22,VALID,0,
2011-08-24, 00:14:05,VALID,917.427,VALID,0,VALID,95.7882,VALID,0,VALID,21.6501,VALID,22,VALID,0,
2011-08-24, 00:15:05,VALID,917.385,VALID,0,VALID,95.8416,VALID,0,VALID,21.6501,VALID,22,VALID,0,
2011-08-24, 00:16:05,VALID,917.391,VALID,0,VALID,95.8187,VALID,0,VALID,21.6323,VALID,22,VALID,0,
2011-08-24, 00:17:05,VALID,917.399,VALID,0,VALID,95.8035,VALID,0,VALID,21.5916,VALID,21,VALID,0,
2011-08-24, 00:18:05,VALID,917.356,VALID,0,VALID,95.8035,VALID,0,VALID,21.5916,VALID,22,VALID,0,
2011-08-24, 00:19:05,VALID,917.355,VALID,0,VALID,95.8263,VALID,0,VALID,21.6128,VALID,22,VALID,0,
2011-08-24, 00:20:05,VALID,917.333,VALID,0,VALID,95.8645,VALID,0,VALID,21.6128,VALID,22,VALID,0,
2011-08-24, 00:21:05,VALID,917.339,VALID,0,VALID,95.9407,VALID,0,VALID,21.6518,VALID,22,VALID,0,
2011-08-24, 00:22:05,VALID,917.33,VALID,0,VALID,95.9483,VALID,0,VALID,21.6518,VALID,22,VALID,0,
2011-08-24, 00:23:05,VALID,917.323,VALID,0,VALID,95.9941,VALID,0,VALID,21.6501,VALID,22,VALID,0,
2011-08-24, 00:24:05,VALID,917.286,VALID,0.2,VALID,96.0322,VALID,0,VALID,21.7103,VALID,22,VALID,0,
2011-08-24, 00:25:05,VALID,917.317,VALID,0,VALID,96.0932,VALID,0,VALID,21.7103,VALID,22,VALID,0.0164062,
2011-08-24, 00:26:05,VALID,917.272,VALID,0,VALID,96.0093,VALID,0,VALID,21.6696,VALID,22,VALID,0,
2011-08-24, 00:27:05,VALID,917.283,VALID,0,VALID,96.0322,VALID,0,VALID,21.6908,VALID,22,VALID,0.00078125,
2011-08-24, 00:28:05,VALID,917.263,VALID,0,VALID,96.0398,VALID,0,VALID,21.6696,VALID,22,VALID,0.219922,
2011-08-24, 00:29:05,VALID,917.275,VALID,0,VALID,96.0322,VALID,0,VALID,21.6713,VALID,22,VALID,0.36875,
2011-08-24, 00:30:05,VALID,917.248,VALID,0,VALID,96.0017,VALID,0,VALID,21.6306,VALID,22,VALID,0.347656,
2011-08-24, 00:31:05,VALID,917.283,VALID,0,VALID,95.9559,VALID,0,VALID,21.6323,VALID,22,VALID,0.342969,
2011-08-24, 00:32:05,VALID,917.275,VALID,0,VALID,95.9559,VALID,0,VALID,21.5932,VALID,22,VALID,0.360156,
2011-08-24, 00:33:05,VALID,917.254,VALID,0,VALID,95.9788,VALID,0,VALID,21.5932,VALID,22,VALID,0.211719,
2011-08-24, 00:34:05,VALID,917.274,VALID,0,VALID,96.0703,VALID,0,VALID,21.6323,VALID,22,VALID,0.123438,
2011-08-24, 00:35:05,VALID,917.309,VALID,0,VALID,96.1236,VALID,0,VALID,21.6518,VALID,21,VALID,0.286328,
2011-08-24, 00:36:05,VALID,917.308,VALID,0,VALID,96.0627,VALID,0,VALID,21.6518,VALID,21,VALID,0.451562,
2011-08-24, 00:37:05,VALID,917.292,VALID,0,VALID,96.0169,VALID,0,VALID,21.6518,VALID,22,VALID,0.492578,
2011-08-24, 00:38:05,VALID,917.289,VALID,0,VALID,96.0627,VALID,0,VALID,21.6908,VALID,22,VALID,0.601953,
2011-08-24, 00:39:05,VALID,917.291,VALID,0,VALID,96.1618,VALID,0,VALID,21.6696,VALID,22,VALID,0.523047,
2011-08-24, 00:40:05,VALID,917.273,VALID,0,VALID,96.1618,VALID,0,VALID,21.7298,VALID,22,VALID,0.563281,
2011-08-24, 00:41:05,VALID,917.249,VALID,0,VALID,96.299,VALID,0,VALID,21.7493,VALID,22,VALID,0.535547,
2011-08-24, 00:42:05,VALID,917.228,VALID,0,VALID,96.1008,VALID,0,VALID,21.7103,VALID,21,VALID,0.194922,
2011-08-24, 00:43:05,VALID,917.196,VALID,0,VALID,96.1389,VALID,0,VALID,21.6908,VALID,22,VALID,0.2125,
2011-08-24, 00:44:05,VALID,917.193,VALID,0,VALID,96.1389,VALID,0,VALID,21.6908,VALID,22,VALID,0.195313,
2011-08-24, 00:45:05,VALID,917.182,VALID,0,VALID,96.238,VALID,0,VALID,21.7298,VALID,22,VALID,0,
2011-08-24, 00:46:05,VALID,917.175,VALID,0,VALID,96.2075,VALID,0,VALID,21.7087,VALID,22,VALID,0,
2011-08-24, 00:47:05,VALID,917.176,VALID,0,VALID,96.1389,VALID,0,VALID,21.6891,VALID,22,VALID,0,
2011-08-24, 00:48:05,VALID,917.151,VALID,0,VALID,96.2609,VALID,0,VALID,21.7298,VALID,22,VALID,0,
2011-08-24, 00:49:05,VALID,917.165,VALID,0,VALID,96.2533,VALID,0,VALID,21.7298,VALID,22,VALID,0,
2011-08-24, 00:50:05,VALID,917.143,VALID,0.2,VALID,96.1694,VALID,0,VALID,21.6891,VALID,22,VALID,0.228125,
2011-08-24, 00:51:05,VALID,917.161,VALID,0,VALID,96.2761,VALID,0,VALID,21.7298,VALID,22,VALID,0.460938,
2011-08-24, 00:52:05,VALID,917.138,VALID,0,VALID,96.2609,VALID,0.107441,VALID,21.7282,VALID,22,VALID,0.343359,
2011-08-24, 00:53:05,VALID,917.137,VALID,0,VALID,96.3447,VALID,0,VALID,21.7282,VALID,22,VALID,0,
2011-08-24, 00:54:05,VALID,917.146,VALID,0,VALID,96.4057,VALID,0,VALID,21.8079,VALID,22,VALID,0.521484,
2011-08-24, 00:55:05,VALID,917.134,VALID,0,VALID,96.3905,VALID,0,VALID,21.8274,VALID,22,VALID,0.452344,
2011-08-24, 00:56:05,VALID,917.086,VALID,0,VALID,96.3447,VALID,0,VALID,21.8274,VALID,22,VALID,0.549609,
2011-08-24, 00:57:05,VALID,917.103,VALID,0,VALID,96.3829,VALID,0,VALID,21.8469,VALID,22,VALID,0.510156,
2011-08-24, 00:58:05,VALID,917.097,VALID,0,VALID,96.1236,VALID,0,VALID,21.7477,VALID,22,VALID,0.398047,
2011-08-24, 00:59:05,VALID,917.1,VALID,0,VALID,96.055,VALID,0,VALID,21.6713,VALID,22,VALID,0.460547,
2011-08-24, 01:00:05,VALID,917.084,VALID,0,VALID,96.0779,VALID,0.107441,VALID,21.6111,VALID,22,VALID,0.569922,
2011-08-24, 01:01:05,VALID,917.045,VALID,0,VALID,96.1236,VALID,0,VALID,21.5932,VALID,22,VALID,0.430469,
2011-08-24, 01:02:05,VALID,917.062,VALID,0,VALID,96.2685,VALID,0,VALID,21.6323,VALID,22,VALID,0.328906,
2011-08-24, 01:03:05,VALID,917.048,VALID,0,VALID,96.238,VALID,0,VALID,21.6323,VALID,22,VALID,0.567187,
2011-08-24, 01:04:05,VALID,917.024,VALID,0,VALID,96.2609,VALID,0,VALID,21.6323,VALID,22,VALID,0.274219,
2011-08-24, 01:05:05,VALID,917.041,VALID,0,VALID,96.3981,VALID,0,VALID,21.6908,VALID,22,VALID,0.395312,
2011-08-24, 01:06:05,VALID,917.017,VALID,0,VALID,96.3371,VALID,0,VALID,21.6891,VALID,22,VALID,0.355469,
2011-08-24, 01:07:05,VALID,917.002,VALID,0,VALID,96.3905,VALID,0.107441,VALID,21.6891,VALID,22,VALID,0.345703,
2011-08-24, 01:08:05,VALID,917.012,VALID,0,VALID,96.3371,VALID,0,VALID,21.7103,VALID,22,VALID,0.432813,
2011-08-24, 01:09:05,VALID,917.011,VALID,0,VALID,96.3524,VALID,0,VALID,21.7103,VALID,22,VALID,0.455469,
2011-08-24, 01:10:05,VALID,916.998,VALID,0,VALID,96.3905,VALID,0,VALID,21.6891,VALID,22,VALID,0.335547,
2011-08-24, 01:11:05,VALID,916.982,VALID,0,VALID,96.36,VALID,0,VALID,21.7298,VALID,22,VALID,0.622656,
2011-08-24, 01:12:05,VALID,917.005,VALID,0,VALID,96.3752,VALID,0,VALID,21.7087,VALID,22,VALID,0.187109,
2011-08-24, 01:13:05,VALID,917.024,VALID,0,VALID,96.2761,VALID,0,VALID,21.6663,VALID,22,VALID,0.633594,
2011-08-24, 01:14:05,VALID,916.986,VALID,0.2,VALID,96.3829,VALID,0,VALID,21.7087,VALID,22,VALID,0.641406,
2011-08-24, 01:15:05,VALID,917.002,VALID,0,VALID,96.3829,VALID,0,VALID,21.7493,VALID,22,VALID,0.610547,
2011-08-24, 01:16:05,VALID,916.963,VALID,0,VALID,96.3371,VALID,0,VALID,21.7087,VALID,22,VALID,0.801172,
2011-08-24, 01:17:05,VALID,916.978,VALID,0.2,VALID,96.2914,VALID,0,VALID,21.629,VALID,22,VALID,0.664063,
2011-08-24, 01:18:05,VALID,916.946,VALID,0.6,VALID,96.3524,VALID,0,VALID,21.7526,VALID,21,VALID,0.901172,
2011-08-24, 01:19:05,VALID,916.946,VALID,1.2,VALID,96.1923,VALID,0,VALID,21.5916,VALID,332,VALID,0.845312,
2011-08-24, 01:20:05,VALID,916.929,VALID,1.2,VALID,95.9254,VALID,0,VALID,21.4567,VALID,345,VALID,1.19492,
2011-08-24, 01:21:05,VALID,916.943,VALID,1,VALID,96.0017,VALID,0,VALID,21.3786,VALID,345,VALID,0.848828,
2011-08-24, 01:22:05,VALID,916.911,VALID,1,VALID,96.0855,VALID,0,VALID,21.299,VALID,345,VALID,0.683203,
2011-08-24, 01:23:05,VALID,916.872,VALID,0.6,VALID,96.177,VALID,0,VALID,21.2795,VALID,345,VALID,0.241016,
2011-08-24, 01:24:05,VALID,916.857,VALID,0.4,VALID,96.2609,VALID,0,VALID,21.2616,VALID,345,VALID,0.307422,
2011-08-24, 01:25:05,VALID,916.87,VALID,0.6,VALID,96.2609,VALID,0,VALID,21.2226,VALID,345,VALID,0.3875,
2011-08-24, 01:26:05,VALID,916.833,VALID,0.6,VALID,96.421,VALID,0,VALID,21.2616,VALID,345,VALID,0,
2011-08-24, 01:27:05,VALID,916.825,VALID,0.4,VALID,96.4743,VALID,0,VALID,21.26,VALID,345,VALID,0,
2011-08-24, 01:28:05,VALID,916.807,VALID,0.6,VALID,96.4972,VALID,0,VALID,21.3006,VALID,345,VALID,0,
2011-08-24, 01:29:05,VALID,916.816,VALID,0.6,VALID,96.5048,VALID,0,VALID,21.2389,VALID,345,VALID,0.230859,
2011-08-24, 01:30:05,VALID,916.792,VALID,0.2,VALID,96.4972,VALID,0,VALID,21.2811,VALID,345,VALID,0.31875,
2011-08-24, 01:31:05,VALID,916.789,VALID,0.2,VALID,96.5429,VALID,0,VALID,21.2616,VALID,345,VALID,0.222266,
2011-08-24, 01:32:05,VALID,916.809,VALID,0,VALID,96.642,VALID,0,VALID,21.3006,VALID,345,VALID,0.197266,
2011-08-24, 01:33:05,VALID,916.778,VALID,0.2,VALID,96.6954,VALID,0,VALID,21.338,VALID,345,VALID,0.514844,
2011-08-24, 01:34:05,VALID,916.767,VALID,0,VALID,96.5811,VALID,0,VALID,21.3396,VALID,345,VALID,0.7,
2011-08-24, 01:35:05,VALID,916.763,VALID,0.2,VALID,96.5658,VALID,0,VALID,21.2372,VALID,345,VALID,0.453906,
2011-08-24, 01:36:05,VALID,916.786,VALID,0.2,VALID,96.5658,VALID,0.107441,VALID,21.26,VALID,345,VALID,0.900391,
2011-08-24, 01:37:05,VALID,916.802,VALID,0,VALID,96.6649,VALID,0,VALID,21.2389,VALID,345,VALID,0.875,
2011-08-24, 01:38:05,VALID,916.767,VALID,0.2,VALID,96.642,VALID,0,VALID,21.2616,VALID,345,VALID,0.639844,
2011-08-24, 01:39:05,VALID,916.833,VALID,0,VALID,96.703,VALID,0,VALID,21.3006,VALID,345,VALID,0.7625,
2011-08-24, 01:40:04,VALID,916.823,VALID,0,VALID,96.7259,VALID,0,VALID,21.3591,VALID,352,VALID,0.769531,
2011-08-24, 01:41:04,VALID,916.834,VALID,0.2,VALID,96.7335,VALID,0,VALID,21.3786,VALID,20,VALID,0.313281,
2011-08-24, 01:42:04,VALID,916.814,VALID,0.2,VALID,96.764,VALID,0,VALID,21.4372,VALID,20,VALID,0,
2011-08-24, 01:43:04,VALID,916.81,VALID,0.4,VALID,96.7183,VALID,0,VALID,21.2811,VALID,20,VALID,0.557813,
2011-08-24, 01:44:04,VALID,916.834,VALID,0.2,VALID,96.6115,VALID,0,VALID,21.2015,VALID,20,VALID,0.729297,
2011-08-24, 01:45:04,VALID,916.805,VALID,0.2,VALID,96.6192,VALID,0,VALID,21.2453,VALID,20,VALID,0.675391,
2011-08-24, 01:46:04,VALID,916.844,VALID,0.4,VALID,96.7335,VALID,0,VALID,21.1819,VALID,20,VALID,0.404687,
2011-08-24, 01:47:04,VALID,916.857,VALID,0.6,VALID,96.703,VALID,0,VALID,21.1429,VALID,20,VALID,0.807422,
2011-08-24, 01:48:04,VALID,916.851,VALID,0.8,VALID,96.7564,VALID,0,VALID,21.164,VALID,20,VALID,0.944531,
2011-08-24, 01:49:04,VALID,916.845,VALID,0.6,VALID,96.7488,VALID,0,VALID,21.1624,VALID,20,VALID,0.892969,
2011-08-24, 01:50:04,VALID,916.866,VALID,0.4,VALID,96.6802,VALID,0,VALID,21.1461,VALID,20,VALID,0.773438,
2011-08-24, 01:51:04,VALID,916.849,VALID,0.6,VALID,96.703,VALID,0,VALID,21.0844,VALID,20,VALID,0.460156,
2011-08-24, 01:52:04,VALID,916.862,VALID,0.8,VALID,96.7793,VALID,0,VALID,21.125,VALID,20,VALID,0.511328,
2011-08-24, 01:53:04,VALID,916.845,VALID,0.8,VALID,96.7869,VALID,0,VALID,21.125,VALID,20,VALID,0.420703,
2011-08-24, 01:54:04,VALID,916.856,VALID,0.6,VALID,96.7564,VALID,0,VALID,21.0665,VALID,20,VALID,0.767969,
2011-08-24, 01:55:04,VALID,916.864,VALID,0.6,VALID,96.764,VALID,0,VALID,21.0665,VALID,223,VALID,0.692578,
2011-08-24, 01:56:04,VALID,916.853,VALID,0.6,VALID,96.7869,VALID,0,VALID,21.0649,VALID,223,VALID,0.558594,
2011-08-24, 01:57:04,VALID,916.844,VALID,0.6,VALID,96.8326,VALID,0,VALID,21.1055,VALID,223,VALID,0.280469,
2011-08-24, 01:58:04,VALID,916.859,VALID,0.4,VALID,96.8403,VALID,0,VALID,21.1039,VALID,224,VALID,0,
2011-08-24, 01:59:04,VALID,916.83,VALID,0.6,VALID,96.8479,VALID,0,VALID,21.1445,VALID,224,VALID,0.367188,
2011-08-24, 02:00:04,VALID,916.853,VALID,0.8,VALID,96.8403,VALID,0,VALID,21.1445,VALID,224,VALID,0.901953,
2011-08-24, 02:01:04,VALID,916.871,VALID,1,VALID,96.8403,VALID,0,VALID,21.1055,VALID,224,VALID,1.15703,
2011-08-24, 02:02:04,VALID,916.831,VALID,1.2,VALID,96.8174,VALID,0,VALID,21.0876,VALID,107,VALID,1.35195,
2011-08-24, 02:03:04,VALID,916.85,VALID,1.2,VALID,96.8555,VALID,0,VALID,21.008,VALID,112,VALID,1.32383,
2011-08-24, 02:04:04,VALID,916.853,VALID,1.4,VALID,96.8098,VALID,0,VALID,20.9495,VALID,109,VALID,1.55352,
2011-08-24, 02:05:04,VALID,916.848,VALID,1.6,VALID,96.703,VALID,0,VALID,20.8129,VALID,118,VALID,1.08477,
2011-08-24, 02:06:04,VALID,916.837,VALID,1.8,VALID,96.6649,VALID,0,VALID,20.6959,VALID,116,VALID,0.936328,
2011-08-24, 02:07:04,VALID,916.818,VALID,1.4,VALID,96.6573,VALID,0,VALID,20.5789,VALID,99,VALID,1.11445,
2011-08-24, 02:08:04,VALID,916.773,VALID,1.6,VALID,96.5734,VALID,0,VALID,20.4423,VALID,107,VALID,0.885156,
2011-08-24, 02:09:04,VALID,916.75,VALID,1.6,VALID,96.7259,VALID,0,VALID,20.3659,VALID,106,VALID,0.894922,
2011-08-24, 02:10:04,VALID,916.706,VALID,1.2,VALID,96.7488,VALID,0,VALID,20.2863,VALID,106,VALID,1.62656,
2011-08-24, 02:11:04,VALID,916.7,VALID,1.6,VALID,96.7945,VALID,0,VALID,20.2293,VALID,86,VALID,2.48047,
2011-08-24, 02:12:04,VALID,916.655,VALID,2.2,VALID,96.8174,VALID,0,VALID,20.1498,VALID,82,VALID,2.55312,
2011-08-24, 02:13:04,VALID,916.527,VALID,1.8,VALID,96.9012,VALID,0,VALID,20.1318,VALID,81,VALID,2.30312,
2011-08-24, 02:14:04,VALID,916.515,VALID,1.6,VALID,96.9241,VALID,0,VALID,20.0913,VALID,103,VALID,1.78516,
2011-08-24, 02:15:04,VALID,916.522,VALID,1.6,VALID,96.9317,VALID,0,VALID,20.0328,VALID,97,VALID,2.10352,
2011-08-24, 02:16:04,VALID,916.533,VALID,1.2,VALID,96.9622,VALID,0,VALID,20.0328,VALID,116,VALID,1.4125,
2011-08-24, 02:17:04,VALID,916.559,VALID,1.4,VALID,96.9851,VALID,0,VALID,20.0118,VALID,111,VALID,1.42578,
2011-08-24, 02:18:04,VALID,916.587,VALID,1.4,VALID,97.0003,VALID,0,VALID,19.9548,VALID,111,VALID,1.24453,
2011-08-24, 02:19:04,VALID,916.611,VALID,1.2,VALID,97.0003,VALID,0,VALID,19.9533,VALID,111,VALID,0.827344,
2011-08-24, 02:20:04,VALID,916.631,VALID,0.8,VALID,97.0385,VALID,0,VALID,19.9968,VALID,111,VALID,0.942578,
2011-08-24, 02:21:04,VALID,916.682,VALID,0.8,VALID,97.0537,VALID,0,VALID,20.0343,VALID,137,VALID,1.15156,
2011-08-24, 02:22:04,VALID,916.651,VALID,1.4,VALID,97.0918,VALID,0,VALID,20.0928,VALID,135,VALID,0.563672,
2011-08-24, 02:23:04,VALID,916.611,VALID,0.8,VALID,97.1147,VALID,0,VALID,20.1123,VALID,136,VALID,0.187891,
2011-08-24, 02:24:04,VALID,916.622,VALID,0.4,VALID,97.1071,VALID,0,VALID,20.1108,VALID,135,VALID,0.0605469,
2011-08-24, 02:25:04,VALID,916.578,VALID,0.6,VALID,97.1223,VALID,0,VALID,20.1303,VALID,135,VALID,0.532422,
2011-08-24, 02:26:04,VALID,916.552,VALID,0.8,VALID,97.1452,VALID,0,VALID,20.1498,VALID,135,VALID,0.495313,
2011-08-24, 02:27:04,VALID,916.505,VALID,0.4,VALID,97.1376,VALID,0,VALID,20.1498,VALID,136,VALID,0.647656,
2011-08-24, 02:28:04,VALID,916.494,VALID,0.4,VALID,97.1604,VALID,0,VALID,20.1693,VALID,135,VALID,1.00469,
2011-08-24, 02:29:04,VALID,916.486,VALID,0.4,VALID,97.1681,VALID,0,VALID,20.1693,VALID,135,VALID,1.23398,
2011-08-24, 02:30:04,VALID,916.46,VALID,0.2,VALID,97.1757,VALID,0,VALID,20.1693,VALID,135,VALID,1.01094,
2011-08-24, 02:31:04,VALID,916.386,VALID,0.2,VALID,97.1528,VALID,0,VALID,20.2098,VALID,118,VALID,0.870703,
2011-08-24, 02:32:04,VALID,916.376,VALID,0,VALID,97.1833,VALID,0,VALID,20.1888,VALID,91,VALID,1.01211,
2011-08-24, 02:33:04,VALID,916.361,VALID,0.2,VALID,97.1757,VALID,0,VALID,20.2293,VALID,125,VALID,0.984766,
2011-08-24, 02:34:04,VALID,916.313,VALID,0,VALID,97.1909,VALID,0,VALID,20.2473,VALID,127,VALID,1.1957,
2011-08-24, 02:35:04,VALID,916.314,VALID,0,VALID,97.1986,VALID,0,VALID,20.2473,VALID,147,VALID,1.0457,
2011-08-24, 02:36:04,VALID,916.31,VALID,0,VALID,97.1909,VALID,0,VALID,20.2668,VALID,161,VALID,0.760547,
2011-08-24, 02:37:04,VALID,916.276,VALID,0,VALID,97.2214,VALID,0,VALID,20.2879,VALID,185,VALID,0.833203,
2011-08-24, 02:38:04,VALID,916.3,VALID,0.2,VALID,97.229,VALID,0,VALID,20.2668,VALID,179,VALID,1.19922,
2011-08-24, 02:39:04,VALID,916.276,VALID,0,VALID,97.2214,VALID,0,VALID,20.2879,VALID,178,VALID,0.782812,
2011-08-24, 02:40:04,VALID,916.266,VALID,0.2,VALID,97.2519,VALID,0,VALID,20.2458,VALID,165,VALID,1.21016,
2011-08-24, 02:41:04,VALID,916.236,VALID,0,VALID,97.229,VALID,0,VALID,20.5609,VALID,165,VALID,0.873438,
2011-08-24, 02:42:04,VALID,916.259,VALID,0,VALID,97.2367,VALID,0,VALID,20.5219,VALID,165,VALID,0.215234,
2011-08-24, 02:43:04,VALID,916.217,VALID,0.2,VALID,97.2367,VALID,0,VALID,20.5414,VALID,165,VALID,0.214844,
2011-08-24, 02:44:04,VALID,916.213,VALID,0,VALID,97.2367,VALID,0,VALID,20.5204,VALID,165,VALID,0.475781,
2011-08-24, 02:45:04,VALID,916.21,VALID,0,VALID,97.2367,VALID,0,VALID,20.5836,VALID,165,VALID,0.346094,
2011-08-24, 02:46:04,VALID,916.219,VALID,0,VALID,97.2519,VALID,0,VALID,20.5219,VALID,165,VALID,0.299609,
2011-08-24, 02:47:04,VALID,916.184,VALID,0,VALID,97.2672,VALID,0,VALID,20.4813,VALID,165,VALID,0.570703,
2011-08-24, 02:48:04,VALID,916.2,VALID,0,VALID,97.2367,VALID,0,VALID,20.4408,VALID,165,VALID,0.741797,
2011-08-24, 02:49:04,VALID,916.188,VALID,0.2,VALID,97.2672,VALID,0,VALID,20.4423,VALID,165,VALID,0.757031,
2011-08-24, 02:50:04,VALID,916.158,VALID,0,VALID,97.2595,VALID,0,VALID,20.4454,VALID,165,VALID,0.849219,
2011-08-24, 02:51:04,VALID,916.177,VALID,0,VALID,97.2595,VALID,0,VALID,20.4049,VALID,165,VALID,0.352734,
2011-08-24, 02:52:04,VALID,916.165,VALID,0.2,VALID,97.2824,VALID,0,VALID,20.4002,VALID,165,VALID,0.213672,
2011-08-24, 02:53:04,VALID,916.139,VALID,0,VALID,97.29,VALID,0,VALID,20.4618,VALID,165,VALID,0,
2011-08-24, 02:54:04,VALID,916.118,VALID,0,VALID,97.2824,VALID,0,VALID,20.4829,VALID,165,VALID,0,
2011-08-24, 02:55:04,VALID,916.08,VALID,0,VALID,97.3053,VALID,0,VALID,20.5024,VALID,165,VALID,0,
2011-08-24, 02:56:04,VALID,916.079,VALID,0,VALID,97.2977,VALID,0,VALID,20.5024,VALID,165,VALID,0.5125,
2011-08-24, 02:57:04,VALID,916.048,VALID,0,VALID,97.29,VALID,0,VALID,20.4439,VALID,165,VALID,0.675781,
2011-08-24, 02:58:04,VALID,916.019,VALID,0,VALID,97.2672,VALID,0,VALID,20.3643,VALID,165,VALID,0.684766,
2011-08-24, 02:59:04,VALID,916.03,VALID,0,VALID,97.2824,VALID,0,VALID,20.3448,VALID,165,VALID,0.773438,
2011-08-24, 03:00:04,VALID,916.019,VALID,0,VALID,97.2977,VALID,0,VALID,20.3464,VALID,165,VALID,0.635547,
2011-08-24, 03:01:04,VALID,915.99,VALID,0,VALID,97.2748,VALID,0,VALID,20.3269,VALID,165,VALID,0.552734,
2011-08-24, 03:02:04,VALID,915.985,VALID,0,VALID,97.2977,VALID,0,VALID,20.3058,VALID,165,VALID,0.389062,
2011-08-24, 03:03:04,VALID,915.986,VALID,0,VALID,97.2977,VALID,0,VALID,20.3269,VALID,165,VALID,0.370703,
2011-08-24, 03:04:04,VALID,915.949,VALID,0,VALID,97.3053,VALID,0,VALID,20.3253,VALID,165,VALID,0.323047,
2011-08-24, 03:05:04,VALID,915.939,VALID,0,VALID,97.3053,VALID,0,VALID,20.3674,VALID,165,VALID,0.382422,
2011-08-24, 03:06:04,VALID,915.933,VALID,0,VALID,97.3281,VALID,0,VALID,20.3854,VALID,165,VALID,0.297656,
2011-08-24, 03:07:04,VALID,915.915,VALID,0,VALID,97.3434,VALID,0,VALID,20.3854,VALID,165,VALID,0.528516,
2011-08-24, 03:08:04,VALID,915.909,VALID,0,VALID,97.351,VALID,0,VALID,20.3448,VALID,165,VALID,0.742969,
2011-08-24, 03:09:04,VALID,915.904,VALID,0,VALID,97.3281,VALID,0,VALID,20.3885,VALID,165,VALID,0.782812,
2011-08-24, 03:10:04,VALID,915.9,VALID,0,VALID,97.3434,VALID,0,VALID,20.3058,VALID,165,VALID,0.632031,
2011-08-24, 03:11:04,VALID,915.905,VALID,0,VALID,97.3434,VALID,0,VALID,20.3869,VALID,165,VALID,0.735937,
2011-08-24, 03:12:04,VALID,915.889,VALID,0,VALID,97.351,VALID,0,VALID,20.3854,VALID,165,VALID,0.477344,
2011-08-24, 03:13:04,VALID,915.907,VALID,0,VALID,97.3434,VALID,0,VALID,20.447,VALID,165,VALID,0.437891,
2011-08-24, 03:14:04,VALID,915.895,VALID,0,VALID,97.3434,VALID,0,VALID,20.4033,VALID,165,VALID,0.399609,
2011-08-24, 03:15:04,VALID,915.892,VALID,0,VALID,97.3434,VALID,0,VALID,20.4049,VALID,165,VALID,0.532812,
2011-08-24, 03:16:04,VALID,915.887,VALID,0,VALID,97.3358,VALID,0,VALID,20.3659,VALID,165,VALID,0.782422,
2011-08-24, 03:17:04,VALID,915.862,VALID,0,VALID,97.3663,VALID,0,VALID,20.3074,VALID,165,VALID,0.539063,
2011-08-24, 03:18:04,VALID,915.87,VALID,0,VALID,97.3739,VALID,0,VALID,20.2278,VALID,165,VALID,0.772656,
2011-08-24, 03:19:04,VALID,915.843,VALID,0,VALID,97.351,VALID,0,VALID,20.1498,VALID,165,VALID,0.766016,
2011-08-24, 03:20:04,VALID,915.833,VALID,0,VALID,97.3739,VALID,0,VALID,20.1513,VALID,165,VALID,0.410156,
2011-08-24, 03:21:04,VALID,915.807,VALID,0,VALID,97.3586,VALID,0,VALID,20.1108,VALID,165,VALID,0.307422,
2011-08-24, 03:22:04,VALID,915.816,VALID,0,VALID,97.3891,VALID,0,VALID,20.1108,VALID,165,VALID,0.385938,
2011-08-24, 03:23:04,VALID,915.803,VALID,0,VALID,97.3739,VALID,0,VALID,20.1903,VALID,165,VALID,0.254297,
2011-08-24, 03:24:04,VALID,915.784,VALID,0,VALID,97.3815,VALID,0,VALID,20.2098,VALID,165,VALID,0.465625,
2011-08-24, 03:25:04,VALID,915.768,VALID,0,VALID,97.3968,VALID,0,VALID,20.2098,VALID,165,VALID,0.465234,
2011-08-24, 03:26:04,VALID,915.781,VALID,0,VALID,97.3968,VALID,0,VALID,20.2098,VALID,165,VALID,0.341406,
2011-08-24, 03:27:04,VALID,915.776,VALID,0,VALID,97.3968,VALID,0,VALID,20.2098,VALID,165,VALID,0,
2011-08-24, 03:28:04,VALID,915.75,VALID,0,VALID,97.3968,VALID,0,VALID,20.2489,VALID,165,VALID,0,
2011-08-24, 03:29:04,VALID,915.765,VALID,0,VALID,97.3739,VALID,0,VALID,20.2489,VALID,165,VALID,0,
2011-08-24, 03:30:04,VALID,915.796,VALID,0,VALID,97.3968,VALID,0,VALID,20.2489,VALID,165,VALID,0,
2011-08-24, 03:31:04,VALID,915.769,VALID,0,VALID,97.3891,VALID,0,VALID,20.2489,VALID,165,VALID,0.347656,
2011-08-24, 03:32:04,VALID,915.806,VALID,0,VALID,97.4044,VALID,0,VALID,20.2278,VALID,165,VALID,0.488281,
2011-08-24, 03:33:04,VALID,915.807,VALID,0,VALID,97.4196,VALID,0,VALID,20.2083,VALID,165,VALID,0.401953,
2011-08-24, 03:34:04,VALID,915.86,VALID,0,VALID,97.4044,VALID,0,VALID,20.1888,VALID,165,VALID,0.491406,
2011-08-24, 03:35:04,VALID,915.859,VALID,0,VALID,97.4196,VALID,0,VALID,20.1708,VALID,165,VALID,0.729688,
2011-08-24, 03:36:04,VALID,915.88,VALID,0,VALID,97.4196,VALID,0,VALID,20.2684,VALID,165,VALID,0.6625,
2011-08-24, 03:37:04,VALID,915.87,VALID,0,VALID,97.412,VALID,0,VALID,20.2684,VALID,165,VALID,0.781641,
2011-08-24, 03:38:04,VALID,915.87,VALID,0,VALID,97.4273,VALID,0,VALID,20.2473,VALID,165,VALID,1.04805,
2011-08-24, 03:39:04,VALID,915.904,VALID,0,VALID,97.4425,VALID,0,VALID,20.2637,VALID,165,VALID,0.893359,
2011-08-24, 03:40:04,VALID,915.93,VALID,0,VALID,97.4425,VALID,0,VALID,20.3058,VALID,165,VALID,0.578516,
2011-08-24, 03:41:04,VALID,915.935,VALID,0,VALID,97.4425,VALID,0,VALID,20.2668,VALID,165,VALID,0.234375,
2011-08-24, 03:42:04,VALID,915.921,VALID,0,VALID,97.4196,VALID,0,VALID,20.2684,VALID,165,VALID,0.609766,
2011-08-24, 03:43:04,VALID,915.916,VALID,0,VALID,97.4501,VALID,0,VALID,20.2278,VALID,165,VALID,0.463672,
2011-08-24, 03:44:04,VALID,915.889,VALID,0,VALID,97.4196,VALID,0,VALID,20.2489,VALID,165,VALID,0.477734,
2011-08-24, 03:45:04,VALID,915.875,VALID,0,VALID,97.4349,VALID,0,VALID,20.2489,VALID,165,VALID,0.81875,
2011-08-24, 03:46:04,VALID,915.845,VALID,0,VALID,97.4349,VALID,0,VALID,20.2083,VALID,165,VALID,0.983984,